Home > Weather > Eau Claire > Past weeks

Flag for U.S.A. Weather for the Past 2 Weeks in Eau Claire, Wisconsin, U.S.A.

Now
35 °F

Overcast.


Feels Like: 26 °F
Forecast: 23 / 35 °F
Wind: 13 mph from West

Location: Eau Claire County Airport

Current Time: Feb 7, 2016 at 10:11:36 AM

Latest Report: Feb 7, 2016 at 8:56 AM


Visibility: 10 mi

Pressure: 29.62 "Hg

Humidity: 75%

Dew point: 28 °F

Location of Eau ClaireLocation

Historic Weather in Eau Claire — Graph

°F

Eau Claire Temperature Yesterday

Maximum temperature yesterday: 34 °F (at 2:56 PM)
Minimum temperature yesterday: 23 °F (at 12:56 AM)
Average temperature yesterday: 29 °F

High & Low Weather Summary for the Past Weeks

 TemperatureHumidityPressure
High44 °F (Jan 30, 1:56 PM)96% (Feb 1, 5:56 AM)30.40 "Hg (Feb 1, 5:56 AM)
Low0 °F (Feb 4, 4:56 AM)49% (Jan 30, 1:56 PM)29.48 "Hg (Jan 30, 1:56 AM)
Average25 °F78%29.91 "Hg
* Reported Jan 23 8:56 AM — Feb 7 8:56 AM, Eau Claire, Weather by CustomWeather, © 2016

Note: Actual official high and low records may vary slightly from our data, if they occured in-between our weather recording intervals... More about our weather records

Advertising

Eau Claire Weather History for the Previous 24 Hours

 ConditionsComfort  
Time TempWeatherWind HumidityBarometerVisibility
8:56 AM
Sun, Feb 7
35 °FOvercast.13 mph75%29.62 "Hg10 mi
7:56 AM33 °FOvercast.10 mph78%29.63 "Hg10 mi
6:56 AM30 °FPassing clouds.8 mph82%29.64 "Hg10 mi
5:56 AM27 °FClear.8 mph85%29.66 "Hg10 mi
4:56 AM30 °FPassing clouds.8 mph82%29.66 "Hg10 mi
3:56 AM33 °FPassing clouds.7 mph78%29.68 "Hg10 mi
2:56 AM33 °FOvercast.8 mph78%29.71 "Hg10 mi
1:56 AM32 °FPassing clouds.7 mph79%29.74 "Hg10 mi
12:56 AM32 °FOvercast.12 mph79%29.75 "Hg10 mi
11:56 PM
Sat, Feb 6
32 °FMostly cloudy.13 mph79%29.81 "Hg10 mi
10:56 PM31 °FLight snow. Overcast.10 mph82%29.85 "Hg4 mi
9:56 PM31 °FMostly cloudy.15 mph76%29.88 "Hg10 mi
8:56 PM31 °FMostly cloudy.13 mph73%29.90 "Hg10 mi
7:56 PM31 °FOvercast.14 mph73%29.91 "Hg10 mi
6:56 PM32 °FOvercast.13 mph69%29.93 "Hg10 mi
5:56 PM32 °FOvercast.12 mph69%29.96 "Hg10 mi
4:56 PM33 °FOvercast.15 mph66%29.99 "Hg10 mi
3:56 PM34 °FPassing clouds.13 mph64%30.01 "Hg10 mi
2:56 PM34 °FSunny.16 mph61%30.03 "Hg10 mi
1:56 PM33 °FSunny.12 mph63%30.05 "Hg10 mi
12:56 PM31 °FSunny.12 mph67%30.09 "Hg10 mi
11:56 AM29 °FSunny.13 mph72%30.12 "Hg10 mi
10:56 AM27 °FPassing clouds.9 mph75%30.15 "Hg10 mi
Weather by CustomWeather, © 2016

See weather overviewHow to use our weather pages